DW4669 Weather Reports


Display with metric or nautical units.
time (UTC)temp
F
wind
direction
speed
MPH
gust
MPH
rain 1hr
in
rain 24hr
in
rain mn
in
humidity
%
barometer
mb
20260905200038 76 0 0.0 3.0 0.00 0.00 0.00 69 1010.4
20260905195517 76 0 0.0 3.0 0.00 0.00 0.00 70 1010.4
20260905195022 76 304 0.0 3.0 0.00 0.00 0.00 70 1010.4
20260905194538 76 305 0.0 3.0 0.00 0.00 0.00 68 1010.4
20260905194018 76 0 0.0 5.0 0.00 0.00 0.00 68 1010.4
20260905193518 76 0 1.0 5.0 0.00 0.00 0.00 68 1010.4
20260905193033 76 0 0.0 5.0 0.00 0.00 0.00 66 1010.3
20260905192518 77 0 2.0 5.0 0.00 0.00 0.00 65 1010.3
20260905192018 77 0 0.0 3.0 0.00 0.00 0.00 65 1010.3
20260905191536 77 0 0.0 6.0 0.00 0.00 0.00 67 1010.4
20260905191018 77 0 0.0 7.0 0.00 0.00 0.00 68 1010.5
20260905190518 77 314 1.0 7.0 0.00 0.00 0.00 65 1010.4
20260905190035 77 317 0.0 3.0 0.00 0.00 0.00 68 1010.5
20260905185517 77 0 0.0 4.0 0.00 0.00 0.00 69 1010.6
20260905185017 77 0 0.0 4.0 0.00 0.00 0.00 70 1010.5
20260905184541 77 319 0.0 3.0 0.00 0.00 0.00 69 1010.7
20260905184016 77 0 0.0 3.0 0.00 0.00 0.00 67 1010.6
20260905183516 78 0 0.0 4.0 0.00 0.00 0.00 67 1010.6
20260905183033 78 221 1.0 4.0 0.00 0.00 0.00 64 1010.6
20260905182518 77 0 0.0 5.0 0.00 0.00 0.00 65 1010.5
20260905182016 76 281 1.0 5.0 0.00 0.00 0.00 70 1010.6
20260905181550 76 0 2.0 5.0 0.00 0.00 0.00 65 1010.7
20260905181017 76 0 0.0 2.0 0.00 0.00 0.00 70 1010.6
20260905180518 76 0 0.0 2.0 0.00 0.00 0.00 70 1010.6
20260905180036 77 0 0.0 2.0 0.00 0.00 0.00 68 1010.7
20260905175518 77 0 0.0 2.0 0.00 0.00 0.00 65 1010.7
20260905175017 77 169 0.0 1.0 0.00 0.00 0.00 67 1010.7
20260905174547 77 0 0.0 0.0 0.00 0.00 0.00 63 1010.8
20260905174022 78 0 0.0 6.0 0.00 0.00 0.00 67 1010.9
20260905173519 77 0 0.0 6.0 0.00 0.00 0.00 67 1010.8
20260905173035 76 0 0.0 4.0 0.00 0.00 0.00 71 1010.8
20260905172518 76 0 1.0 4.0 0.00 0.00 0.00 71 1010.9
20260905172018 76 0 0.0 5.0 0.00 0.00 0.00 68 1011.0
20260905171541 76 0 0.0 9.0 0.00 0.00 0.00 68 1011.0
20260905171018 76 298 3.0 9.0 0.00 0.00 0.00 64 1010.9
20260905170517 77 336 2.0 7.0 0.00 0.00 0.00 66 1010.9
20260905170035 77 315 1.0 5.0 0.00 0.00 0.00 64 1010.9
20260905165520 77 0 2.0 5.0 0.00 0.00 0.00 65 1011.0
20260905165020 77 0 0.0 1.0 0.00 0.00 0.00 70 1011.1
20260905164537 76 0 0.0 4.0 0.00 0.00 0.00 71 1011.1
20260905164015 75 0 0.0 4.0 0.00 0.00 0.00 70 1011.1
20260905163516 75 313 1.0 5.0 0.00 0.00 0.00 68 1011.1
20260905163035 74 0 1.0 5.0 0.00 0.00 0.00 71 1011.2
20260905162518 74 332 0.0 5.0 0.00 0.00 0.00 70 1011.2
20260905162019 73 315 0.0 5.0 0.00 0.00 0.00 72 1011.2
20260905161534 73 0 0.0 3.0 0.00 0.00 0.00 75 1011.1
20260905161017 73 0 0.0 6.0 0.00 0.00 0.00 73 1011.1
20260905160517 73 317 1.0 8.0 0.00 0.00 0.00 69 1011.1
20260905160105 74 0 2.0 8.0 0.00 0.00 0.00 69 1010.9
20260905155515 74 306 1.0 5.0 0.00 0.00 0.00 70 1011.0
20260905155023 74 315 1.0 5.0 0.00 0.00 0.00 69 1011.0
20260905154535 74 0 2.0 5.0 0.00 0.00 0.00 71 1011.0
20260905154018 73 333 0.0 6.0 0.00 0.00 0.00 74 1011.1
20260905153516 73 346 1.0 6.0 0.00 0.00 0.00 73 1011.0
20260905153033 73 329 0.0 5.0 0.00 0.00 0.00 71 1011.1
20260905152519 73 0 2.0 6.0 0.00 0.00 0.00 72 1011.0
20260905152018 73 0 0.0 6.0 0.00 0.00 0.00 71 1011.1
20260905151537 73 306 1.0 5.0 0.00 0.00 0.00 71 1011.1
20260905151019 73 331 2.0 5.0 0.00 0.00 0.00 71 1011.1
20260905150517 73 0 0.0 6.0 0.00 0.00 0.00 73 1011.2
20260905150036 73 297 3.0 6.0 0.00 0.00 0.00 71 1011.1
20260905145517 73 331 1.0 6.0 0.00 0.00 0.00 72 1011.2
20260905145022 73 333 1.0 8.0 0.00 0.00 0.00 75 1011.1
20260905144534 73 0 2.0 8.0 0.00 0.00 0.00 70 1011.0
20260905144023 73 317 3.0 8.0 0.00 0.00 0.00 73 1011.0
20260905143518 72 308 2.0 7.0 0.00 0.00 0.00 72 1011.1
20260905143036 73 319 2.0 5.0 0.00 0.00 0.00 75 1011.1
20260905142518 72 313 1.0 4.0 0.00 0.00 0.00 74 1011.0
20260905142020 72 0 1.0 5.0 0.00 0.00 0.00 74 1011.2
20260905141540 71 333 1.0 8.0 0.00 0.00 0.00 73 1011.2
20260905141018 72 0 2.0 8.0 0.00 0.00 0.00 74 1011.2
20260905140520 71 281 0.0 5.0 0.00 0.00 0.00 77 1011.0
20260905140038 71 313 1.0 5.0 0.00 0.00 0.00 78 1011.0
20260905135516 70 309 0.0 4.0 0.00 0.00 0.00 79 1011.1
20260905135015 70 0 1.0 4.0 0.00 0.00 0.00 80 1011.1
20260905134536 69 0 0.0 4.0 0.00 0.00 0.00 81 1011.1
20260905134021 69 0 1.0 4.0 0.00 0.00 0.00 82 1011.2
20260905133517 69 0 0.0 4.0 0.00 0.00 0.00 84 1011.1
20260905133034 69 307 0.0 3.0 0.00 0.00 0.00 83 1011.2
20260905132518 68 0 0.0 3.0 0.00 0.00 0.00 84 1011.2
20260905132020 68 0 0.0 5.0 0.00 0.00 0.00 84 1011.3
20260905131534 68 0 0.0 5.0 0.00 0.00 0.00 85 1011.2
20260905131019 67 173 0.0 4.0 0.00 0.00 0.00 87 1011.3
20260905130518 66 0 0.0 4.0 0.00 0.00 0.00 88 1011.5
20260905130035 65 0 0.0 2.0 0.00 0.00 0.00 91 1011.5
20260905125516 64 0 0.0 2.0 0.00 0.00 0.00 91 1011.5
20260905125016 64 173 0.0 5.0 0.00 0.00 0.00 93 1011.5
20260905124539 63 0 0.0 5.0 0.00 0.00 0.00 94 1011.7
20260905124017 63 0 0.0 2.0 0.00 0.00 0.00 96 1011.7
20260905123517 62 0 0.0 2.0 0.00 0.00 0.00 96 1011.7
20260905123037 62 0 0.0 2.0 0.00 0.00 0.00 97 1011.7
20260905122517 62 0 0.0 2.0 0.00 0.00 0.00 98 1011.7
20260905122020 61 173 0.0 2.0 0.00 0.00 0.00 98 1011.7
20260905121535 61 0 0.0 1.0 0.00 0.00 0.00 98 1011.6
20260905121018 61 0 0.0 0.0 0.00 0.00 0.00 98 1011.7
20260905120518 60 0 0.0 0.0 0.00 0.00 0.00 98 1011.7
20260905120034 60 0 0.0 1.0 0.00 0.00 0.00 98 1011.6
20260905115519 60 0 0.0 1.0 0.00 0.00 0.00 98 1011.7
20260905115020 60 0 0.0 2.0 0.00 0.00 0.00 98 1011.6
20260905114535 59 0 0.0 2.0 0.00 0.00 0.00 98 1011.4
20260905114019 59 0 0.0 2.0 0.00 0.00 0.00 98 1011.4
20260905113516 58 0 0.0 1.0 0.00 0.00 0.00 98 1011.3
20260905113035 58 0 0.0 0.0 0.00 0.00 0.00 98 1011.3
20260905112520 57 0 0.0 0.0 0.00 0.00 0.00 98 1011.2
20260905112017 56 0 0.0 0.0 0.00 0.00 0.00 97 1011.2
20260905111536 56 0 0.0 0.0 0.00 0.00 0.00 96 1011.1
20260905111018 56 0 0.0 0.0 0.00 0.00 0.00 96 1011.1
20260905110517 56 0 0.0 0.0 0.00 0.00 0.00 96 1011.0
20260905110034 56 0 0.0 0.0 0.00 0.00 0.00 96 1011.0
20260905105517 56 0 0.0 0.0 0.00 0.00 0.00 96 1011.0
20260905105021 57 0 0.0 0.0 0.00 0.00 0.00 96 1010.8
20260905104537 57 0 0.0 0.0 0.00 0.00 0.00 96 1010.7
20260905104018 57 0 0.0 0.0 0.00 0.00 0.00 96 1010.6
20260905103516 57 0 0.0 0.0 0.00 0.00 0.00 96 1010.7
20260905103044 57 0 0.0 0.0 0.00 0.00 0.00 97 1010.6
20260905102515 57 0 0.0 0.0 0.00 0.00 0.00 97 1010.4
20260905102018 57 0 0.0 0.0 0.00 0.00 0.00 97 1010.4
20260905101535 57 0 0.0 0.0 0.00 0.00 0.00 96 1010.4
20260905101017 57 0 0.0 0.0 0.00 0.00 0.00 96 1010.4
20260905100519 57 0 0.0 0.0 0.00 0.00 0.00 96 1010.4
20260905100036 57 0 0.0 0.0 0.00 0.00 0.00 96 1010.3
20260905095516 57 0 0.0 0.0 0.00 0.00 0.00 96 1010.3
20260905095019 57 0 0.0 0.0 0.00 0.00 0.00 96 1010.3
20260905094537 58 0 0.0 1.0 0.00 0.00 0.00 96 1010.1
20260905094016 58 0 0.0 2.0 0.00 0.00 0.00 96 1010.2
20260905093521 58 0 0.0 2.0 0.00 0.00 0.00 96 1010.2
20260905093034 58 292 0.0 1.0 0.00 0.00 0.00 96 1010.2
20260905092516 58 0 0.0 0.0 0.00 0.00 0.00 96 1010.2
20260905092017 58 0 0.0 0.0 0.00 0.00 0.00 96 1010.1
20260905091609 58 0 0.0 0.0 0.00 0.00 0.00 96 1010.2
20260905091021 58 0 0.0 0.0 0.00 0.00 0.00 96 1010.2
20260905090517 58 0 0.0 0.0 0.00 0.00 0.00 96 1010.2
20260905090036 58 0 0.0 0.0 0.00 0.00 0.00 96 1010.2
20260905085518 58 0 0.0 0.0 0.00 0.00 0.00 96 1010.2
20260905085017 58 0 0.0 0.0 0.00 0.00 0.00 96 1010.2
20260905084534 58 0 0.0 0.0 0.00 0.00 0.00 96 1010.1
20260905084016 58 0 0.0 0.0 0.00 0.00 0.00 96 1010.1
20260905083517 59 0 0.0 0.0 0.00 0.00 0.00 96 1010.0
20260905083035 59 0 0.0 0.0 0.00 0.00 0.00 95 1010.1
20260905082516 59 0 0.0 0.0 0.00 0.00 0.00 95 1010.1
20260905082020 59 0 0.0 0.0 0.00 0.00 0.00 95 1010.1
20260905081536 59 0 0.0 0.0 0.00 0.00 0.00 95 1010.2
20260905081020 59 0 0.0 0.0 0.00 0.00 0.00 95 1010.3
20260905080518 59 0 0.0 0.0 0.00 0.00 0.00 95 1010.3
20260905080042 59 0 0.0 0.0 0.00 0.00 0.00 95 1010.5
20260905075518 59 0 0.0 0.0 0.00 0.01 0.00 95 1010.4
20260905075015 60 0 0.0 0.0 0.00 0.01 0.00 95 1010.3
20260905074539 60 0 0.0 0.0 0.00 0.01 0.00 95 1010.3
20260905074018 60 0 0.0 0.0 0.00 0.01 0.00 95 1010.3
20260905073519 60 0 0.0 0.0 0.00 0.01 0.00 95 1010.3
20260905073035 60 0 0.0 0.0 0.00 0.01 0.00 95 1010.3
20260905072519 60 0 0.0 0.0 0.00 0.01 0.00 95 1010.3
20260905072016 60 0 0.0 0.0 0.00 0.01 0.00 94 1010.3
20260905071552 60 0 0.0 0.0 0.00 0.01 0.00 94 1010.4
20260905071020 61 0 0.0 0.0 0.00 0.01 0.00 94 1010.4
20260905070517 61 0 0.0 0.0 0.00 0.01 0.00 94 1010.3
20260905070037 61 0 0.0 0.0 0.00 0.01 0.00 94 1010.3
20260905065519 61 0 0.0 0.0 0.00 0.30 0.00 94 1010.4
20260905065018 61 0 0.0 0.0 0.00 0.30 0.00 94 1010.4
20260905064538 62 0 0.0 0.0 0.00 0.30 0.00 94 1010.3
20260905064019 62 0 0.0 0.0 0.00 0.30 0.00 94 1010.4
20260905063516 62 0 0.0 0.0 0.00 0.30 0.00 95 1010.4
20260905063037 62 0 0.0 0.0 0.00 0.30 0.00 94 1010.5
20260905062520 62 0 0.0 0.0 0.00 0.30 0.00 93 1010.6
20260905062016 62 0 0.0 0.0 0.00 0.30 0.00 93 1010.5
20260905061552 62 0 0.0 0.0 0.00 0.30 0.00 93 1010.6
20260905061017 63 0 0.0 0.0 0.00 0.30 0.00 93 1010.6
20260905060521 63 0 0.0 0.0 0.00 0.30 0.00 93 1010.7
20260905060035 63 0 0.0 1.0 0.00 0.30 0.00 93 1010.8
20260905055517 63 0 0.0 1.0 0.00 0.30 0.00 93 1010.8
20260905055018 64 0 0.0 1.0 0.00 0.30 0.00 94 1010.7
20260905054534 64 0 0.0 0.0 0.00 0.30 0.00 94 1010.7
20260905054017 64 0 0.0 0.0 0.00 0.30 0.00 94 1010.9
20260905053517 64 0 0.0 0.0 0.00 0.30 0.00 94 1011.0
20260905053035 64 0 0.0 0.0 0.00 0.30 0.00 95 1011.1
20260905052518 64 0 0.0 0.0 0.00 0.30 0.00 95 1011.2
20260905052016 64 0 0.0 0.0 0.00 0.30 0.00 95 1011.2
20260905051539 64 0 0.0 0.0 0.00 0.30 0.00 95 1011.3
20260905051016 64 0 0.0 0.0 0.00 0.30 0.00 95 1011.4
20260905050515 64 0 0.0 0.0 0.00 0.30 0.00 95 1011.4
20260905050036 64 0 0.0 0.0 0.00 0.30 0.00 94 1011.4
20260905045517 64 0 0.0 0.0 0.00 0.30 0.00 95 1011.4
20260905045016 64 0 0.0 0.0 0.00 0.30 0.00 95 1011.4
20260905044538 64 0 0.0 0.0 0.00 0.30 0.00 95 1011.4
20260905044017 64 0 0.0 0.0 0.00 0.30 0.00 95 1011.4
20260905043517 64 0 0.0 0.0 0.00 0.30 0.00 95 1011.3
20260905043037 64 0 0.0 0.0 0.00 0.30 0.00 95 1011.3
20260905042518 64 0 0.0 0.0 0.00 0.30 0.00 95 1011.2
20260905042018 64 0 0.0 0.0 0.00 0.30 0.00 94 1011.2
20260905041534 64 0 0.0 0.0 0.00 0.30 0.00 94 1011.3
20260905041018 64 0 0.0 0.0 0.00 0.30 0.00 94 1011.4
20260905040518 64 0 0.0 0.0 0.00 0.30 0.00 94 1011.5
20260905040040 64 0 0.0 0.0 0.00 0.30 0.00 94 1011.5
20260905035519 64 0 0.0 0.0 0.00 0.30 0.30 94 1011.5
20260905035023 64 0 0.0 0.0 0.00 0.30 0.30 94 1011.5
20260905034543 64 0 0.0 0.0 0.00 0.30 0.30 94 1011.6
20260905034018 64 0 0.0 0.0 0.00 0.30 0.30 94 1011.6
20260905033516 64 0 0.0 0.0 0.00 0.30 0.30 94 1011.6
20260905033036 64 0 0.0 0.0 0.00 0.30 0.30 94 1011.5
20260905032520 65 0 0.0 0.0 0.00 0.30 0.30 94 1011.5
20260905032021 65 0 0.0 0.0 0.00 0.30 0.30 94 1011.5
20260905031534 65 0 0.0 0.0 0.00 0.30 0.30 94 1011.3
20260905031020 65 0 0.0 0.0 0.00 0.30 0.30 95 1011.3
20260905030517 64 0 0.0 0.0 0.00 0.30 0.30 95 1011.4
20260905030038 64 0 0.0 0.0 0.00 0.30 0.30 94 1011.4
20260905025518 64 0 0.0 0.0 0.00 0.30 0.30 94 1011.4
20260905025016 64 0 0.0 0.0 0.00 0.30 0.30 94 1011.5
20260905024535 64 0 0.0 0.0 0.00 0.30 0.30 94 1011.3
20260905024018 64 0 0.0 0.0 0.00 0.30 0.30 94 1011.5
20260905023518 64 0 0.0 0.0 0.00 0.30 0.30 94 1011.6
20260905023037 64 0 0.0 0.0 0.00 0.30 0.30 94 1011.5
20260905022518 64 0 0.0 0.0 0.00 0.30 0.30 94 1011.4
20260905022019 64 0 0.0 0.0 0.00 0.30 0.30 93 1011.4
20260905021536 64 0 0.0 0.0 0.00 0.30 0.30 93 1011.4
20260905021023 64 0 0.0 0.0 0.00 0.30 0.30 93 1011.5
20260905020520 64 0 0.0 0.0 0.00 0.30 0.30 93 1011.5
20260905020040 64 0 0.0 0.0 0.00 0.30 0.30 93 1011.5
20260905015516 64 0 0.0 0.0 0.00 0.30 0.30 93 1011.4
20260905015019 64 0 0.0 0.0 0.00 0.30 0.30 93 1011.3
20260905014537 64 0 0.0 0.0 0.00 0.30 0.30 92 1011.3
20260905014016 65 0 0.0 0.0 0.00 0.30 0.30 93 1011.3
20260905013515 65 0 0.0 0.0 0.00 0.30 0.30 93 1011.3
20260905013036 65 0 0.0 0.0 0.00 0.30 0.30 93 1011.2
20260905012517 65 0 0.0 0.0 0.00 0.30 0.30 92 1011.2
20260905012019 65 0 0.0 0.0 0.00 0.30 0.30 92 1011.2
20260905011541 65 0 0.0 1.0 0.00 0.30 0.30 92 1011.3
20260905011016 65 0 0.0 1.0 0.00 0.30 0.30 92 1011.3
20260905010517 65 0 0.0 0.0 0.00 0.30 0.30 92 1011.3
20260905010034 66 0 0.0 0.0 0.00 0.30 0.30 91 1011.3
20260905005516 66 0 0.0 1.0 0.00 0.30 0.30 91 1011.3
20260905005018 66 0 0.0 1.0 0.00 0.30 0.30 90 1011.2
20260905004544 67 0 0.0 1.0 0.00 0.30 0.30 90 1011.2
20260905004017 67 0 0.0 0.0 0.00 0.30 0.30 89 1011.3
20260905003521 67 0 0.0 0.0 0.00 0.30 0.30 89 1011.3
20260905003036 68 0 0.0 0.0 0.00 0.30 0.30 88 1011.2
20260905002516 68 0 0.0 0.0 0.00 0.30 0.30 87 1011.2
20260905002019 68 0 0.0 0.0 0.00 0.30 0.30 86 1011.0
20260905001548 69 0 0.0 0.0 0.00 0.30 0.30 86 1010.9
20260905001021 69 0 0.0 0.0 0.00 0.30 0.30 85 1010.8
20260905000516 69 0 0.0 0.0 0.00 0.30 0.30 84 1010.9
20260905000034 70 0 0.0 0.0 0.00 0.30 0.30 83 1011.0
20260904235517 70 0 0.0 0.0 0.00 0.30 0.30 82 1011.0
20260904235017 71 0 0.0 0.0 0.00 0.30 0.30 81 1011.0
20260904234539 71 0 0.0 0.0 0.00 0.30 0.30 80 1010.9
20260904234017 72 0 0.0 0.0 0.00 0.30 0.30 79 1010.9
20260904233518 72 0 0.0 0.0 0.00 0.30 0.30 78 1010.9
20260904233042 73 0 0.0 0.0 0.00 0.30 0.30 76 1010.9
20260904232520 74 0 0.0 0.0 0.00 0.30 0.30 74 1010.9
20260904232021 74 0 0.0 1.0 0.00 0.30 0.30 73 1010.8
20260904231545 75 0 0.0 4.0 0.00 0.30 0.30 72 1010.9
20260904231016 75 0 0.0 4.0 0.00 0.30 0.30 70 1010.8
20260904230518 76 286 0.0 4.0 0.00 0.30 0.30 69 1010.8
20260904230034 76 0 0.0 2.0 0.00 0.30 0.30 69 1010.8
20260904225518 76 0 0.0 2.0 0.00 0.30 0.30 69 1010.8
20260904225018 77 0 0.0 3.0 0.00 0.30 0.30 69 1010.9
20260904224545 77 281 0.0 3.0 0.00 0.30 0.30 68 1010.9
20260904224018 78 0 0.0 3.0 0.00 0.30 0.30 67 1010.8
20260904223521 78 0 0.0 3.0 0.00 0.30 0.30 68 1010.7
20260904223050 78 0 0.0 4.0 0.00 0.30 0.30 67 1010.7
20260904222518 78 0 0.0 4.0 0.00 0.30 0.30 65 1010.7
20260904222016 78 348 1.0 4.0 0.00 0.30 0.30 64 1010.8
20260904221537 79 0 0.0 6.0 0.00 0.30 0.30 65 1010.7
20260904221016 79 0 0.0 6.0 0.00 0.30 0.30 64 1010.8
20260904220516 80 234 1.0 7.0 0.00 0.30 0.30 61 1010.7
20260904220034 81 286 2.0 7.0 0.00 0.30 0.30 59 1010.6
20260904215517 81 281 1.0 5.0 0.00 0.30 0.30 62 1010.6
20260904215017 81 259 0.0 4.0 0.00 0.30 0.30 61 1010.7
20260904214533 81 294 1.0 5.0 0.00 0.30 0.30 64 1010.7
20260904214017 80 294 1.0 8.0 0.00 0.30 0.30 62 1010.7
20260904213525 80 251 0.0 8.0 0.00 0.30 0.30 61 1010.6
20260904213035 81 322 2.0 8.0 0.00 0.30 0.30 60 1010.4
20260904212516 81 50 1.0 8.0 0.00 0.30 0.30 62 1010.4
20260904212015 81 0 1.0 6.0 0.00 0.30 0.30 60 1010.4
20260904211539 81 230 1.0 8.0 0.00 0.30 0.30 62 1010.4
20260904211017 80 12 2.0 8.0 0.00 0.30 0.30 61 1010.4
20260904210518 80 324 1.0 5.0 0.00 0.30 0.30 64 1010.6
20260904210046 81 298 2.0 8.0 0.00 0.30 0.30 63 1010.6
20260904205518 81 326 3.0 9.0 0.00 0.30 0.30 64 1010.6
20260904205018 82 0 2.0 9.0 0.00 0.30 0.30 61 1010.6
20260904204538 82 0 1.0 8.0 0.00 0.30 0.30 62 1010.6
20260904204018 82 346 2.0 8.0 0.00 0.30 0.30 62 1010.7
20260904203516 82 0 1.0 10.0 0.00 0.30 0.30 63 1010.7
20260904203037 82 259 2.0 10.0 0.00 0.30 0.30 62 1010.7
20260904202518 81 331 4.0 10.0 0.00 0.30 0.30 62 1010.8
20260904202016 81 0 1.0 9.0 0.00 0.30 0.30 66 1010.9
20260904201536 81 253 1.0 5.0 0.00 0.30 0.30 66 1011.0
20260904201017 81 333 1.0 7.0 0.00 0.30 0.30 64 1010.9
20260904200520 81 0 0.0 10.0 0.00 0.30 0.30 62 1010.9